Meteo Giornale » Osservazioni meteo Stati Uniti (USA) » Duluth
ore: 15:55 - Osservazioni Meteo Duluth
Lat. 46° 50' N Lon. 92° 13' W Alt. 435 metri s.l.m.
28 °C
Poco Nuvoloso
Temp. 24 Ore
17 °C
28 °C
Ovest/Nord-Ovest
16.7 Km/h
Dew point 17 °C
Umidità 51 %
Visibilità 10 Km
Il sole sorge alle ore 06:27
Il sole tramonta alle ore 19:50
| Data e Ora | Cielo e Fenomeni | T °C | DP °C | Um. % | Pres. hPa | Vis. km | Vento km/h | |
|---|---|---|---|---|---|---|---|---|
| Oggi h: 15:55 | Poco Nuvoloso | 28 | 17 | 51 | 1011 | 10 | O/NO 16.7 | |
| Oggi h: 14:55 | Poco Nuvoloso | 28 | 18 | 54 | 1011 | 10 | O/NO 20.3 | |
| Oggi h: 14:09 | Nuvoloso | 26 | 19 | 65 | 1011 | 10 | O/NO 13 | |
| Oggi h: 13:55 | Molto Nuvoloso | 26 | 20 | 69 | 1010 | 10 | NO 14.8 | |
| Oggi h: 13:29 | Molto Nuvoloso | 26 | 21 | 73 | 1011 | 10 | O 16.7 | |
| Oggi h: 12:55 | Foschia | 23 | 21 | 88 | 1010 | 10 | O 13 | |
| Oggi h: 11:55 | Foschia | 22 | 21 | 94 | 1010 | 5 | O 14.8 | |
| Oggi h: 11:01 | Foschia | 21 | 21 | 100 | 1010 | 5 | O 11.1 | |
| Oggi h: 10:55 | Foschia | 21 | 21 | 100 | 1010 | 3 | O/SO 14.8 | |
| Oggi h: 10:20 | Foschia | 20 | 20 | 100 | 1010 | 3 | O/SO 13 | |
| Oggi h: 09:55 | Nebbia | 19 | 19 | 100 | 1009 | 2 | S/SO 11.1 | |
| Oggi h: 09:25 | Nebbia | 19 | 19 | 100 | 1009 | 2 | S 7.4 | |
| Oggi h: 08:55 | Nebbia | 19 | 19 | 100 | 1009 | 2 | S/SE 7.4 | |
| Oggi h: 07:55 | Nebbia | 18 | 18 | 100 | 1009 | 2 | SE 7.4 | |
| Oggi h: 06:55 | Nebbia | 18 | 18 | 100 | 1009 | 2 | E/SE 7.4 | |
| Oggi h: 06:50 | Nebbia | 18 | 18 | 100 | 1009 | 2 | N 5.5 | |
| Oggi h: 05:55 | Nebbia | 18 | 18 | 100 | 1008 | 2 | SE 7.4 | |
| Oggi h: 05:46 | Nebbia | 18 | 18 | 100 | 1008 | 2 | E/SE 14.8 | |
| Oggi h: 05:07 | Nebbia | 18 | 18 | 100 | 1009 | 2 | E/SE 14.8 | |
| Oggi h: 05:03 | Foschia | 18 | 18 | 100 | 1009 | 2 | E/SE 11.1 | |
| Oggi h: 04:55 | Coperto | 19 | 18 | 93 | 1009 | 13 | SE 16.7 | |
| Oggi h: 04:45 | Coperto | 19 | 18 | 93 | 1008 | 10 | SE 18.5 | |
| Oggi h: 04:34 | Temporale Foschia | 19 | 19 | 100 | 1008 | 10 | S/SE 22.2 | |
| Oggi h: 04:10 | Temporale Nebbia | 18 | 18 | 100 | 1009 | 2 | S/SE 25.9 | |
| Oggi h: 03:59 | Temporale Nebbia | 18 | 18 | 100 | 1009 | 2 | E/SE 11.1 | |
| Oggi h: 03:55 | Temporale Nebbia | 18 | 18 | 100 | 1009 | 2 | E/SE 13 | |
| Oggi h: 02:55 | Nebbia | 18 | 17 | 93 | 1009 | 2 | E/SE 14.8 | |
| Oggi h: 01:55 | Nebbia | 18 | 18 | 100 | 1009 | 2 | E/SE 22.2 | |
| Oggi h: 01:34 | Nebbia | 18 | 18 | 100 | 1009 | 2 | E/SE 25.9 | |
| Oggi h: 01:17 | Pioggia Foschia | 18 | 18 | 100 | 1009 | 2 | E/SE 33.3 | |
| Oggi h: 01:07 | Pioggia Foschia | 18 | 18 | 100 | 1009 | 8 | E/SE 33.3 | |
| Oggi h: 00:55 | Temporale | 18 | 18 | 100 | 1010 | 5 | E/SE 29.6 | |
| Oggi h: 00:35 | Temporale | 18 | 18 | 100 | 1011 | 8 | E/SE 29.6 | |
| Oggi h: 00:10 | Pioggia | 18 | 18 | 100 | 1011 | 11 | E 22.2 | |
| Oggi h: 00:02 | Temporale Foschia | 18 | 18 | 100 | 1011 | 10 | E 22.2 | |
| Ieri h: 23:55 | Temporale Foschia | 18 | 18 | 100 | 1011 | 8 | E 18.5 | |
| Ieri h: 23:36 | Temporale Foschia | 18 | 17 | 93 | 1011 | 8 | E 20.3 | |
| Ieri h: 23:01 | Temporale Foschia | 17 | 17 | 100 | 1011 | 2 | E 18.5 | |
| Ieri h: 22:55 | Pioggia Foschia | 17 | 17 | 100 | 1011 | 5 | E 14.8 | |
| Ieri h: 22:50 | Pioggia Foschia | 17 | 17 | 100 | 1011 | 8 | E 14.8 | |
| Ieri h: 22:42 | Pioviggine Foschia | 17 | 17 | 100 | 1012 | 5 | E 13 | |
| Ieri h: 21:55 | Pioviggine Foschia | 17 | 17 | 100 | 1011 | 5 | E 22.2 | |
| Ieri h: 21:23 | Pioviggine Foschia | 17 | 17 | 100 | 1012 | 2 | E 18.5 | |
| Ieri h: 20:55 | Coperto | 17 | 17 | 100 | 1011 | 13 | E 22.2 | |
| Ieri h: 20:03 | Coperto | 17 | 17 | 100 | 1011 | 10 | E/SE 18.5 | |
| Ieri h: 19:55 | Coperto | 17 | 17 | 100 | 1011 | 10 | E/SE 18.5 | |
| Ieri h: 18:55 | Coperto | 17 | 17 | 100 | 1012 | 10 | E 20.3 | |
| Ieri h: 17:55 | Coperto | 18 | 17 | 93 | 1012 | 10 | E 18.5 | |
| Ieri h: 16:55 | Coperto | 19 | 17 | 88 | 1012 | 10 | E/NE 18.5 | |



